Tracking 25709 objects as of 23-May-2022
HD Live streaming from Space Station
objects crossing your sky now

SL-12 R/B(2)

Track SL-12 R/B(2) now!


NORAD ID: 11568
Int'l Code: 1975-123F
Perigee: 35,652.9 km
Apogee: 35,808.1 km
Inclination: 6.3 °
Period: 1,432.9 minutes
Semi major axis: 42101 km
RCS: 3.1622 m2 (large)
Launch date: December 22, 1975
Source: Commonwealth of Independent States (former USSR) (CIS)
Launch site: TYURATAM MISSILE AND SPACE COMPLEX (TTMTR)

Note: This is a ROCKET BODY
aabbcc
Your satellite tracking list
Your tracking list is empty




NASA's NSSDC Master Catalog

Two Line Element Set (TLE):
1 11568U 75123F   22142.84094411 -.00000369  00000-0  00000+0 0  9999
2 11568   6.3497 287.8550 0018426 168.1999 205.9624  1.00497742107157
Source of the keplerian elements: AFSPC